• en Suisse
  • Liste des pays
  • À 7 jours
  • Température de l'eau
  • Carte satellitaire
  • Carte météo
  • Widgets météo
  • user-avatar
    Se connecter

    Météo par heure à Ali Sabieh

    Ce jour, 21 Février, Mercredi

    Heure Température Précipitation Vent Pression Humidité
    00:00 +22°C° 0 mm 3 m/s 696 mmHg 76%
    01:00 +22°C° 0 mm 3 m/s 696 mmHg 77%
    02:00 +22°C° 0 mm 3 m/s 696 mmHg 78%
    03:00 +22°C° 0 mm 3 m/s 695 mmHg 80%
    04:00 +21°C° 0 mm 3 m/s 696 mmHg 81%
    05:00 +21°C° 0 mm 3 m/s 696 mmHg 82%
    06:00 +21°C° 0 mm 2 m/s 696 mmHg 83%
    07:00 +22°C° 0 mm 3 m/s 696 mmHg 78%
    08:00 +24°C° 0 mm 3 m/s 697 mmHg 73%
    09:00 +24°C° 0 mm 3 m/s 697 mmHg 68%
    10:00 +26°C° 0 mm 4 m/s 697 mmHg 62%
    11:00 +27°C° 0 mm 5 m/s 697 mmHg 56%
    12:00 +29°C° 0 mm 5 m/s 697 mmHg 50%
    13:00 +29°C° 0 mm 6 m/s 697 mmHg 48%
    14:00 +30°C° 0 mm 6 m/s 696 mmHg 46%
    15:00 +30°C° 0 mm 7 m/s 696 mmHg 44%
    16:00 +29°C° 0 mm 7 m/s 695 mmHg 48%
    17:00 +28°C° 0 mm 7 m/s 695 mmHg 52%
    18:00 +27°C° 0 mm 7 m/s 695 mmHg 56%
    19:00 +26°C° 0 mm 6 m/s 695 mmHg 59%
    20:00 +25°C° 0 mm 5 m/s 696 mmHg 62%
    21:00 +23°C° 0 mm 4 m/s 696 mmHg 65%
    22:00 +23°C° 0 mm 4 m/s 696 mmHg 67%
    23:00 +22°C° 0 mm 4 m/s 696 mmHg 69%

    Demain, 22 Février, Jeudi

    Heure Température Précipitation Vent Pression Humidité
    00:00 +22°C° 0 mm 4 m/s 696 mmHg 71%
    01:00 +22°C° 0 mm 4 m/s 696 mmHg 73%
    02:00 +21°C° 0 mm 4 m/s 695 mmHg 76%
    03:00 +21°C° 0 mm 4 m/s 695 mmHg 78%
    04:00 +21°C° 0 mm 4 m/s 695 mmHg 79%
    05:00 +21°C° 0 mm 3 m/s 695 mmHg 80%
    06:00 +21°C° 0 mm 3 m/s 695 mmHg 81%
    07:00 +21°C° 0 mm 4 m/s 696 mmHg 75%
    08:00 +22°C° 0 mm 4 m/s 697 mmHg 70%
    09:00 +23°C° 0 mm 4 m/s 697 mmHg 65%
    10:00 +26°C° 0 mm 5 m/s 697 mmHg 58%
    11:00 +27°C° 0 mm 5 m/s 697 mmHg 52%
    12:00 +29°C° 0 mm 5 m/s 697 mmHg 45%
    13:00 +29°C° 0 mm 6 m/s 696 mmHg 43%
    14:00 +30°C° 0 mm 6 m/s 696 mmHg 41%
    15:00 +30°C° 0 mm 6 m/s 695 mmHg 39%
    16:00 +29°C° 0 mm 6 m/s 695 mmHg 42%
    17:00 +28°C° 0 mm 6 m/s 695 mmHg 46%
    18:00 +27°C° 0 mm 6 m/s 695 mmHg 49%
    19:00 +26°C° 0 mm 5 m/s 695 mmHg 53%
    20:00 +25°C° 0 mm 5 m/s 696 mmHg 57%
    21:00 +23°C° 0 mm 4 m/s 696 mmHg 60%
    22:00 +24°C° 0 mm 3 m/s 696 mmHg 62%
    23:00 +24°C° 0 mm 3 m/s 696 mmHg 65%

    Après-demain, 23 Février, Vendredi

    Heure Température Précipitation Vent Pression Humidité
    00:00 +22°C° 0 mm 3 m/s 696 mmHg 67%
    01:00 +22°C° 0 mm 3 m/s 695 mmHg 69%
    02:00 +21°C° 0 mm 2 m/s 695 mmHg 72%
    03:00 +21°C° 0 mm 2 m/s 694 mmHg 74%
    04:00 +21°C° 0 mm 2 m/s 695 mmHg 76%
    05:00 +20°C° 0 mm 2 m/s 695 mmHg 78%
    06:00 +20°C° 0 mm 2 m/s 695 mmHg 80%
    07:00 +21°C° 0 mm 3 m/s 695 mmHg 75%
    08:00 +22°C° 0 mm 3 m/s 696 mmHg 69%
    09:00 +24°C° 0 mm 3 m/s 697 mmHg 63%
    10:00 +26°C° 0 mm 4 m/s 697 mmHg 56%
    11:00 +28°C° 0 mm 4 m/s 696 mmHg 50%
    12:00 +29°C° 0 mm 4 m/s 696 mmHg 43%
    13:00 +30°C° 0 mm 5 m/s 696 mmHg 43%
    14:00 +30°C° 0 mm 5 m/s 695 mmHg 42%
    15:00 +32°C° 0 mm 6 m/s 694 mmHg 41%
    16:00 +30°C° 0 mm 6 m/s 694 mmHg 45%
    17:00 +28°C° 0 mm 6 m/s 694 mmHg 49%
    18:00 +27°C° 0 mm 6 m/s 694 mmHg 53%
    19:00 +26°C° 0 mm 5 m/s 695 mmHg 56%
    20:00 +26°C° 0 mm 4 m/s 695 mmHg 59%
    21:00 +25°C° 0 mm 4 m/s 696 mmHg 62%
    22:00 +23°C° 0 mm 4 m/s 695 mmHg 65%
    23:00 +24°C° 0 mm 3 m/s 695 mmHg 67%

    24 Février, Samedi

    Heure Température Précipitation Vent Pression Humidité
    00:00 +22°C° 0 mm 3 m/s 695 mmHg 69%
    01:00 +22°C° 0 mm 3 m/s 695 mmHg 72%
    02:00 +21°C° 0 mm 3 m/s 694 mmHg 75%
    03:00 +21°C° 0 mm 3 m/s 694 mmHg 78%
    04:00 +21°C° 0 mm 3 m/s 694 mmHg 79%
    05:00 +21°C° 0 mm 3 m/s 695 mmHg 80%
    06:00 +20°C° 0 mm 3 m/s 695 mmHg 82%
    07:00 +22°C° 0 mm 3 m/s 696 mmHg 76%
    08:00 +24°C° 0 mm 3 m/s 696 mmHg 70%
    09:00 +25°C° 0 mm 4 m/s 697 mmHg 63%
    10:00 +26°C° 0 mm 4 m/s 697 mmHg 58%
    11:00 +28°C° 0 mm 4 m/s 696 mmHg 53%
    12:00 +30°C° 0 mm 4 m/s 696 mmHg 48%
    13:00 +30°C° 0 mm 5 m/s 695 mmHg 47%
    14:00 +32°C° 0 mm 5 m/s 695 mmHg 46%
    15:00 +32°C° 0 mm 5 m/s 694 mmHg 45%
    16:00 +30°C° 0 mm 6 m/s 694 mmHg 50%
    17:00 +29°C° 0 mm 6 m/s 694 mmHg 55%
    18:00 +27°C° 0 mm 6 m/s 694 mmHg 59%
    19:00 +26°C° 0 mm 5 m/s 694 mmHg 63%
    20:00 +26°C° 0 mm 5 m/s 695 mmHg 67%
    21:00 +25°C° 0 mm 4 m/s 695 mmHg 70%
    22:00 +25°C° 0 mm 4 m/s 695 mmHg 72%
    23:00 +23°C° 0 mm 4 m/s 695 mmHg 75%

    25 Février, Dimanche

    Heure Température Précipitation Vent Pression Humidité
    00:00 +24°C° 0 mm 3 m/s 695 mmHg 77%
    01:00 +24°C° 0 mm 3 m/s 694 mmHg 78%
    02:00 +22°C° 0 mm 3 m/s 694 mmHg 80%
    03:00 +22°C° 0 mm 3 m/s 694 mmHg 81%
    04:00 +22°C° 0 mm 3 m/s 694 mmHg 82%
    05:00 +22°C° 0 mm 3 m/s 694 mmHg 82%
    06:00 +22°C° 0 mm 3 m/s 695 mmHg 83%
    07:00 +22°C° 0 mm 4 m/s 695 mmHg 79%
    08:00 +23°C° 0 mm 4 m/s 696 mmHg 76%
    09:00 +25°C° 0 mm 4 m/s 696 mmHg 72%
    10:00 +26°C° 0 mm 4 m/s 696 mmHg 68%
    11:00 +27°C° 0 mm 4 m/s 696 mmHg 63%
    12:00 +28°C° 0 mm 4 m/s 696 mmHg 59%
    13:00 +29°C° 0 mm 5 m/s 695 mmHg 57%
    14:00 +29°C° 0 mm 5 m/s 695 mmHg 56%
    15:00 +30°C° 0 mm 5 m/s 694 mmHg 54%
    16:00 +29°C° 0 mm 5 m/s 694 mmHg 59%
    17:00 +28°C° 0 mm 5 m/s 694 mmHg 64%
    18:00 +26°C° 0 mm 5 m/s 694 mmHg 69%
    19:00 +26°C° 0 mm 5 m/s 695 mmHg 71%
    20:00 +25°C° 0 mm 4 m/s 695 mmHg 74%
    21:00 +25°C° 0 mm 4 m/s 695 mmHg 77%
    22:00 +23°C° 0 mm 4 m/s 695 mmHg 78%
    23:00 +23°C° 0 mm 4 m/s 695 mmHg 79%

    26 Février, Lundi

    Heure Température Précipitation Vent Pression Humidité
    00:00 +23°C° 0 mm 4 m/s 695 mmHg 81%
    01:00 +23°C° 0 mm 4 m/s 694 mmHg 81%
    02:00 +24°C° 0 mm 3 m/s 694 mmHg 82%
    03:00 +22°C° 0 mm 3 m/s 694 mmHg 83%
    04:00 +22°C° 0 mm 3 m/s 694 mmHg 84%
    05:00 +22°C° 0 mm 3 m/s 695 mmHg 84%
    06:00 +22°C° 0 mm 3 m/s 695 mmHg 85%
    07:00 +24°C° 0 mm 3 m/s 695 mmHg 80%
    08:00 +23°C° 0 mm 4 m/s 696 mmHg 76%
    09:00 +25°C° 0 mm 4 m/s 697 mmHg 71%
    10:00 +26°C° 0 mm 5 m/s 696 mmHg 68%
    11:00 +27°C° 0 mm 5 m/s 696 mmHg 65%
    12:00 +28°C° 0 mm 5 m/s 696 mmHg 62%
    13:00 +28°C° 0 mm 5 m/s 695 mmHg 61%
    14:00 +28°C° 0 mm 6 m/s 694 mmHg 61%
    15:00 +29°C° 0 mm 6 m/s 694 mmHg 60%
    16:00 +28°C° 0 mm 6 m/s 694 mmHg 64%
    17:00 +27°C° 0 mm 6 m/s 694 mmHg 67%
    18:00 +26°C° 0 mm 6 m/s 694 mmHg 71%
    19:00 +26°C° 0 mm 5 m/s 695 mmHg 74%
    20:00 +25°C° 0 mm 5 m/s 695 mmHg 76%
    21:00 +25°C° 0 mm 5 m/s 696 mmHg 79%
    22:00 +23°C° 0 mm 4 m/s 695 mmHg 80%
    23:00 +23°C° 0 mm 4 m/s 695 mmHg 81%
    Voir plus